TIME,DELAY(SENSOR),PRES,OXYGEN,RAWTEMP,T(OPTODE),TCPHASE,FLUOR,BETA(BETA700),BETA(BETA412),BETA(BETA440),CDOM,C(CSC),ED(ED412.20),ED(ED444.00),ED(ED489.60),ED(ED554.30),LU(LU412.10),LU(LU443.90),LU(LU489.70),LU(LU554.70),COMP,TILTX,TILTY,CHECK
1338347657,5811,889.9199829101562000,32.3895111083984400,564.9232177734375000,4.3332180976867680,56.7513198852539060,55,99,102,79,84,15523,0,0,0,0,2147125394,2147776667,2147567350,2147572553,1519,2,13,50439
1338351253,5810,969.9799804687500000,38.9490089416503900,572.6417236328125000,4.0934391021728520,55.7987709045410160,55,98,101,78,83,15528,0,0,0,0,2147121856,2147773860,2147570587,2147574921,842,2,13,43795
1338354853,5807,985.8800048828125000,40.1749382019043000,573.7960205078125000,4.0575389862060550,55.6337394714355500,56,99,100,78,83,15527,0,0,0,0,2147125888,2147780909,2147571812,2147572132,207,2,13,4539
1338358453,5811,989.0499877929688000,40.7441596984863300,575.0153198242188000,4.0196018218994140,55.5545082092285160,54,98,102,78,83,15528,0,0,0,0,2147122651,2147775149,2147571190,2147570404,366,2,13,43197
1338362053,5810,994.2000122070312000,41.0566291809082000,575.3529052734375000,4.0090942382812500,55.5144691467285160,55,98,100,79,83,15527,0,0,0,0,2147122139,2147775341,2147570614,2147571565,281,2,13,63332
1338365653,5808,995.3400268554688000,40.6753311157226560,575.3845825195312000,4.0081062316894530,55.5694694519043000,54,98,103,78,84,15528,0,0,0,0,2147122944,2147777298,2147567963,2147572992,98,2,13,20677
1338369253,5808,990.3900146484375000,40.9931106567382800,576.2551269531250000,3.9810121059417725,55.5366401672363300,55,99,101,78,84,15527,0,0,0,0,2147125440,2147774774,2147570989,2147570605,3596,2,13,48492
1338372853,5810,992.6400146484375000,41.7114486694335940,577.0908813476562000,3.9549920558929443,55.4372901916503900,54,101,101,78,84,15527,0,0,0,0,2147127030,2147775360,2147575744,2147572470,224,2,13,14225
1338376453,5812,993.2399902343750000,42.1884307861328100,577.3021850585938000,3.9484119415283203,55.3699417114257800,54,101,101,77,83,15528,0,0,0,0,2147122075,2147776347,2147573531,2147570331,3282,2,13,30394
1338380053,5809,988.2199707031250000,42.1676101684570300,577.8643798828125000,3.9309079647064210,55.3852195739746100,54,98,101,78,85,15524,0,0,0,0,2147122660,2147778377,2147569307,2147571181,997,2,13,4457
1338383653,5812,1004.3400268554688000,42.2817802429199200,577.4265747070312000,3.9445400238037110,55.3601608276367200,55,99,100,78,84,15526,0,0,0,0,2147123227,2147776448,2147572205,2147571428,228,2,13,48630
1338387253,5807,1002.2700195312500000,41.5982589721679700,576.8129882812500000,3.9636440277099610,55.4504318237304700,55,100,102,78,85,15520,0,0,0,0,2147125120,2147779904,2147566171,2147569353,441,2,13,61306
1338390853,5812,1005.5599975585938000,41.1739006042480500,576.5358886718750000,3.9722709655761720,55.5109214782714840,55,99,102,79,83,15524,0,0,0,0,2147125741,2147774390,2147570889,2147570102,219,2,13,59669
1338394453,5808,1004.7800292968750000,41.5052795410156250,576.4552001953125000,3.9747850894927980,55.4646110534668000,56,98,102,78,84,15524,0,0,0,0,2147127177,2147781312,2147568091,2147574884,313,2,13,44294
1338398053,5811,1011.6699829101562000,40.9493103027343750,576.3726806640625000,3.9773519039154053,55.5426292419433600,56,99,101,78,84,15526,0,0,0,0,2147123099,2147778605,2147577883,2147573092,3458,2,13,38767
1338401653,5808,1016.2399902343750000,40.0765304565429700,574.6876220703125000,4.0297989845275880,55.6579399108886700,54,98,102,78,83,15523,0,0,0,0,2147122130,2147780205,2147577316,2147572635,3420,2,13,50293
1338405253,5810,1007.4600219726562000,40.1497497558593750,575.4091796875000000,4.0073428153991700,55.6512794494628900,55,97,101,78,84,15523,0,0,0,0,2147123602,2147776109,2147572544,2147571702,213,2,13,45994
1338408853,5811,1013.6500244140625000,40.1217613220214840,575.4946289062500000,4.0046839714050290,55.6574211120605500,55,98,102,78,83,15522,0,0,0,0,2147124507,2147771602,2147574162,2147574043,332,2,13,56458
1338412453,5811,1003.1099853515625000,40.6181297302246100,576.4830932617188000,3.9739151000976562,55.5956306457519500,55,99,101,78,83,15522,0,0,0,0,2147124178,2147775387,2147572946,2147573522,3513,2,13,31540
1338416053,5809,1003.0200195312500000,40.2250099182128900,577.0230102539062000,3.9571061134338380,55.6589202880859400,55,96,101,78,84,15525,0,0,0,0,2147121609,2147776246,2147568612,2147571446,52,2,13,30833
1338419653,5810,1003.0399780273438000,42.7100791931152340,578.6207885742188000,3.9073491096496580,55.3132209777832000,54,97,102,79,83,15522,0,0,0,0,2147125613,2147779602,2147575177,2147571702,3151,2,13,5997
1338423253,5810,1007.8499755859375000,41.7367515563964840,577.0543823242188000,3.9561290740966797,55.4324111938476560,55,97,102,80,83,15522,0,0,0,0,2147122496,2147777691,2147570742,2147572937,3364,2,13,27493
1338426853,5812,1007.8599853515625000,42.3256416320800800,578.5518188476562000,3.9094979763031006,55.3674888610839840,55,96,101,78,84,15520,0,0,0,0,2147123456,2147777837,2147573641,2147574025,2923,2,13,41104
1338430453,5809,1006.9199829101562000,41.9800109863281250,577.3859252929688000,3.9458069801330566,55.4018211364746100,55,98,100,77,84,15522,0,0,0,0,2147124534,2147777664,2147570596,2147571163,2819,2,13,19936
1338434053,5810,1001.5499877929688000,42.0174293518066400,578.3192749023438000,3.9167389869689940,55.4060897827148440,55,98,101,78,83,15519,0,0,0,0,2147122194,2147776722,2147570971,2147570742,3597,2,13,59891
1338437653,5809,1003.9299926757812000,42.3836593627929700,578.4323120117188000,3.9132208824157715,55.3577804565429700,55,100,103,77,84,15520,0,0,0,0,2147123821,2147777206,2147571492,2147572900,3355,2,13,7943
1338441253,5809,1008.7899780273438000,42.3388099670410160,577.8839111328125000,3.9302999973297120,55.3545188903808600,54,98,101,77,84,15522,0,0,0,0,2147122752,2147775826,2147574208,2147570998,131,2,13,28265
1338444853,5807,1010.2100219726562000,41.6507682800293000,578.2208251953125000,3.9198060035705566,55.4593696594238300,55,97,102,79,83,15519,0,0,0,0,2147122980,2147781275,2147575780,2147574921,180,2,13,62875
1338448453,5811,1010.6599731445312000,41.1693305969238300,576.3972167968750000,3.9765911102294920,55.5129585266113300,56,97,102,78,83,15519,0,0,0,0,2147124690,2147782162,2147574957,2147570889,32,2,13,21039
1338452053,5808,1011.8499755859375000,40.6617698669433600,576.1342773437500000,3.9847760200500490,55.5842208862304700,56,98,101,78,85,15517,0,0,0,0,2147124059,2147776109,2147570450,2147574930,3587,2,13,62748
1338455653,5807,1015.8200073242188000,40.2842216491699200,576.4785766601562000,3.9740560054779053,55.6425895690918000,55,97,102,78,84,15517,0,0,0,0,2147124406,2147774930,2147572644,2147569472,480,2,13,31950
1338459253,5810,1008.0900268554688000,41.0031585693359400,578.0518188476562000,3.9250719547271730,55.5498199462890600,54,98,102,77,84,15519,0,0,0,0,2147122989,2147782326,2147569197,2147572800,3510,2,13,54773
1338462853,5811,1005.1400146484375000,42.0532913208007800,578.2929077148438000,3.9175610542297363,55.4008903503418000,55,99,101,78,83,15517,0,0,0,0,2147126546,2147779053,2147575488,2147571392,503,2,13,27889
1338466453,5809,1011.6099853515625000,42.3136215209960940,578.3120727539062000,3.9169640541076660,55.3683586120605500,55,97,102,77,84,15517,0,0,0,0,2147124864,2147783286,2147570587,2147570020,3501,2,13,44631
1338470053,5810,1010.4799804687500000,42.1732711791992200,577.7456054687500000,3.9346070289611816,55.3777999877929700,54,100,101,76,83,15515,0,0,0,0,2147124836,2147775405,2147570322,2147572013,338,2,13,53872
1338473653,5811,1009.6099853515625000,41.9958496093750000,578.1806030273438000,3.9210588932037354,55.4123115539550800,55,100,101,78,83,15514,0,0,0,0,2147123181,2147777673,2147570998,2147568128,278,2,13,25923
1338477253,5809,1014.0000000000000000,42.2545585632324200,577.5625000000000000,3.9403080940246580,55.3670806884765600,54,98,102,78,84,15514,0,0,0,0,2147124571,2147774555,2147572105,2147568768,535,2,13,47874
1338480853,5810,1007.6599731445312000,41.8163909912109400,577.9494018554688000,3.9282588958740234,55.4324989318847660,55,99,102,79,84,15512,0,0,0,0,2147122313,2147774464,2147572242,2147570870,478,2,13,2767
1338484453,5809,1010.6099853515625000,42.2720298767089840,578.7067260742188000,3.9046730995178223,55.3741493225097660,55,97,103,78,85,15462,0,0,0,0,2147125869,2147777755,2147574747,2147569856,468,2,13,32150
1338488053,5812,1016.5100097656250000,41.8438110351562500,576.9824218750000000,3.9583699703216553,55.4157791137695300,56,98,100,78,84,15462,0,0,0,0,2147121810,2147775835,2147576137,2147571364,617,2,13,44679
1338491653,5811,1016.2999877929688000,40.7757797241210940,576.9160156250000000,3.9604399204254150,55.5735511779785160,55,99,102,79,84,15461,0,0,0,0,2147121965,2147778578,2147570020,2147570953,170,2,13,29853
1338492355,5808,1017.0999755859375000,40.8398399353027340,576.8231201171875000,3.9633290767669678,55.5609092712402340,55,97,103,78,84,15455,0,0,0,0,2147121837,2147783890,2147572845,2147567195,206,2,13,50181
